This demonstration page uses our WeatherBlox Daily Observations layout. Learn more.

Left ArrowRight Arrow

Hourly Observations for January 25, 2022

Temp ( °F °C ) Dew Point ( °F °C ) Humidity (%) Winds ( mph kmh ) Pressure ( in mb ) Visibility ( mi km ) Precip ( " mm )
12:22 am 00:22 Cloudy with Mist and Fog 48 8.9 47 8.3 96 96 Calm 29.94 1014 3 5 0.00 0.00
12:53 am 00:53 Cloudy with Mist and Fog 48 8.9 47 8.3 96 96 Calm 29.92 1013 4 6 0.00 0.00
1:53 am 01:53 Cloudy 48 8.9 46 7.8 93 93 NNW 6 9 29.93 1014 7 11 0.00 0.00
2:53 am 02:53 Cloudy 48 8.9 45 7.2 89 89 N 7 11 29.95 1014 8 13 0.00 0.00
3:15 am 03:15 Cloudy with Mist and Fog 48 8.9 45 7.2 89 89 Calm 29.97 1015 6 10 0.00 0.00
3:53 am 03:53 Cloudy with Mist and Fog 47 8.3 44 6.7 90 90 NNW 10 17 29.98 1015 4 6 0.00 0.00
4:03 am 04:03 Cloudy with Mist and Fog 46 7.8 44 6.7 93 93 NNW 9 15 30.00 1016 3 4 0.00 0.00
4:27 am 04:27 Cloudy with Mist and Fog 46 7.8 44 6.7 93 93 N 6 9 30.00 1016 3 5 0.00 0.00
4:53 am 04:53 Partly Cloudy with Mist and Fog 46 7.8 43 6.1 89 89 N 8 13 30.00 1016 6 10 0.00 0.00
5:53 am 05:53 Clear 42 5.6 35 1.7 76 76 NNE 6 9 30.03 1017 10 16 0.00 0.00
6:53 am 06:53 Clear 42 5.6 32 0 68 68 NNE 6 9 30.06 1018 10 16 0.00 0.00
7:53 am 07:53 Sunny 42 5.6 30 -1.1 62 62 NE 12 19 30.08 1019 10 16 0.00 0.00
8:53 am 08:53 Sunny 44 6.7 31 -0.6 60 60 NE 8 13 30.10 1019 10 16 0.00 0.00
9:53 am 09:53 Sunny 48 8.9 33 0.6 56 56 NE 10 17 30.12 1020 10 16 0.00 0.00
10:53 am 10:53 Sunny 50 10 34 1.1 54 54 ENE 12 19 30.14 1021 10 16 0.00 0.00
11:53 am 11:53 Mostly Sunny 53 11.7 36 2.2 52 52 NE 12 19 30.13 1020 10 16 0.00 0.00
12:53 pm 12:53 Mostly Sunny 55 12.8 36 2.2 49 49 VRB 7 11 30.11 1020 10 16 0.00 0.00
1:53 pm 13:53 Mostly Sunny 57 13.9 35 1.7 44 44 NNE 9 15 30.09 1019 10 16 0.00 0.00
2:53 pm 14:53 Mostly Sunny 59 15 35 1.7 41 41 NE 9 15 30.09 1019 10 16 0.00 0.00
3:53 pm 15:53 Mostly Sunny 59 15 35 1.7 41 41 ENE 12 19 30.09 1019 10 16 0.00 0.00
4:53 pm 16:53 Mostly Sunny 58 14.4 34 1.1 41 41 NE 10 17 30.11 1020 10 16 0.00 0.00
5:53 pm 17:53 Mostly Sunny 56 13.3 33 0.6 42 42 NE 7 11 30.13 1020 10 16 0.00 0.00
6:53 pm 18:53 Mostly Clear 53 11.7 31 -0.6 43 43 NNE 7 11 30.17 1022 10 16 0.00 0.00
7:53 pm 19:53 Clear 51 10.6 29 -1.7 43 43 NNE 9 15 30.20 1023 10 16 0.00 0.00
8:53 pm 20:53 Mostly Clear 47 8.3 23 -5 39 39 NNE 8 13 30.24 1024 10 16 0.00 0.00
9:53 pm 21:53 Mostly Clear 44 6.7 21 -6.1 40 40 NE 12 19 30.27 1025 10 16 0.00 0.00
10:53 pm 22:53 Mostly Clear 42 5.6 18 -7.8 38 38 NNE 13 20 30.29 1026 10 16 0.00 0.00
11:53 pm 23:53 Mostly Clear 40 4.4 18 -7.8 41 41 NNE 13 20 30.32 1027 10 16 0.00 0.00

Powered by AerisWeather